DELTA 1 DEB, 42579

Orbit data source: Space-Track

DELTA 1 DEB, 42579 is space debris in SSO originally from a launch on Tue, 06 Nov 1973 UTC launched from the Air Force Western Test Range (AFWTR). Debris objects in space refer to the collection of defunct objects orbiting the Earth. Examples of debris include non-operational satellites, rocket bodies, and fragments generated from explosions, collisions, or faulty payload assembly.

Loading next visibility...
Identifier
42579, 1973-086HT
Orbit
SSO
Country
Flag of USUS
Related business
Manufacturer
Unknown
Mission
Spacecraft
Bus & Motor
Unknown
Mass
Unknown
Launch date (UTC)
1973-11-06 (52 years ago)
Launch vehicle
Unknown
Launch site
Air Force Western Test Range (AFWTR)
Object type
Payload
Rocket body
Debris
Shape & HBR
Unknown shape, 0.1 m
Radar Cross Section
Small (<0.1 m²)

Expand to show TLE details & history
Last TLE update: 3 days ago

TLE from 3 days ago
0 DELTA 1 DEB
1 42579U 73086HT  25295.46889277  .00000055  00000-0  88274-3 0  9997
2 42579 102.6069 305.1224 0080875  57.6405 303.2445 12.26759774181444
Epoch: 2025-10-22T11:15Z
TLE epoch observation values (Epoch: 2025-10-22T11:15:12.335Z)
Latitude
-0.00004°
Longitude
105.17896°
Altitude
1,530.892 km
Speed
7.116 km/s
True Right ascension
20h 20m 29s
True Declination
0° 00' 00"
Sunlit
Object was in daylight at epoch
Visualization orbit readout
Latitude
Unknown
Longitude
Unknown
Altitude
Unknown
Speed
Unknown
Apparent Right ascension
Unknown
Apparent Declination
Unknown
Sunlit
N/A
Visualization observer readout
Local Sidereal Time
04:52:47
Azimuth
Unknown
Elevation
Unknown
Doppler factor
Unknown
Orbital elements
Apogee altitude
1,625.069 km
Perigee altitude
1,496.656 km
Semi-major axis
7,939 km
Eccentricity
0.00809
Inclination
102.6069°
RAAN
305.1224°
Arg. of periapsis
57.6405°
True anomaly
302.46512°
Mean anomaly
303.2445°
Eccentric anomaly
302.85524°
Mean motion
3.06828 °/min
Orbital period
117.33 mins
BSTAR
0.00088274
Loading maneuver chart data...
Computing Atmospheric mass density...
Loading historical data...
Loading historical data...
Loading historical data...
Loading historical data...
Loading historical data...
Loading historical data...
Loading historical data...

Documentation

Showing up to 5 results
|